Date,TemperatureHighF,TemperatureAvgF,TemperatureLowF,DewpointHighF,DewpointAvgF,DewpointLowF,HumidityHigh,HumidityAvg,HumidityLow,PressureMaxIn,PressureMinIn,WindSpeedMaxMPH,WindSpeedAvgMPH,GustSpeedMaxMPH,PrecipitationSumIn
2013-2-1,42,27,20,33,18,12,91,69,54,30.52,30.05,21,1,21,0.00
2013-2-2,41,29,19,34,23,13,100,78,47,30.52,30.18,10,0,10,0.00
2013-2-3,45,35,28,35,29,22,96,78,53,30.19,30.02,18,1,18,0.00
2013-2-4,52,35,25,33,25,21,85,69,46,30.28,30.12,10,0,10,0.00
2013-2-5,55,41,30,42,34,27,93,76,59,30.15,30.04,2,0,1,0.00
2013-2-6,57,43,29,38,33,29,100,72,41,30.35,30.14,7,0,7,0.00
2013-2-7,43,38,33,40,35,29,100,91,68,30.38,30.13,4,0,4,0.00
2013-2-8,50,41,33,46,38,29,100,90,66,30.28,30.05,20,1,20,0.00
2013-2-9,55,39,29,30,26,23,87,64,30,30.47,30.24,13,1,13,0.00
2013-2-10,49,40,32,42,32,26,100,75,50,30.52,30.27,17,1,17,0.00
2013-2-11,57,50,42,56,47,35,100,90,63,30.29,30.09,3,0,5,0.00
2013-2-12,52,44,39,41,34,29,100,68,49,30.23,30.05,9,0,12,0.00
2013-2-13,52,40,34,47,38,31,100,94,67,30.07,29.75,12,1,12,0.00
2013-2-14,52,39,30,37,32,28,92,75,52,30.20,30.03,11,0,11,0.00
2013-2-15,56,39,26,40,32,25,100,81,45,30.26,30.07,12,1,12,0.00
2013-2-16,34,30,23,30,24,13,92,78,56,30.16,29.99,16,1,16,0.00
2013-2-17,35,27,21,17,14,10,74,58,44,30.42,30.16,14,1,14,0.00
2013-2-18,51,34,18,32,24,15,93,67,47,30.53,30.32,14,1,14,0.00
2013-2-19,53,42,34,45,31,19,100,68,44,30.32,30.00,13,1,13,0.00
2013-2-20,45,35,29,20,17,15,61,49,33,30.29,30.17,14,1,14,0.00
2013-2-21,59,41,27,38,23,15,98,53,25,30.36,30.21,9,0,9,0.01
2013-2-22,40,37,34,40,37,34,100,99,95,30.39,30.21,10,0,10,0.00
2013-2-23,53,45,37,52,44,37,100,99,96,30.23,29.96,5,0,5,0.00
2013-2-24,54,45,36,44,35,29,100,73,45,30.17,29.98,14,1,14,0.00
2013-2-25,45,37,30,33,30,28,96,75,58,30.27,30.13,11,0,11,0.01
2013-2-26,38,35,32,38,35,32,100,100,96,30.16,29.71,7,0,7,1.70
2013-2-27,56,42,32,43,36,32,100,80,48,29.94,29.79,10,0,10,0.00
2013-2-28,40,35,32,35,29,25,92,78,62,30.05,29.84,13,1,13,0.00